contact:dominique.lefevre@mio.osupytheas.fr, maurice.libes@osupytheas.fr, didier.mallarino@osupytheas.fr
Project:EMSO http://www.emso-fr.org/EMSO-France
Depth: 2436.0 m
Title:EMSO Ligure Ouest : Data MII capteur CSTAR
DateTime,Latitude,Longitude,Instrument_Serial,Reference_Counts,Signal_Counts,Corrected_Signal_raw_counts,Calculated_Beam_c_inverse_meters,Internal_thermistor_counts
DateTime,Latitude,Longitude,Instrument_Serial,Reference_Counts,Signal_Counts,Corrected_Signal_raw_counts,Calculated_Beam_c_inverse_meters,Internal_thermistor_counts
2022-05-06T00:01:04,42.805,6.029,CST-1368DR,4765,5465,12231,0.977,551
2022-05-06T00:04:05,42.805,6.029,CST-1368DR,4764,5455,12209,0.984,551
2022-05-06T00:07:07,42.805,6.029,CST-1368DR,4765,5461,12220,0.981,551
2022-05-06T00:10:08,42.805,6.029,CST-1368DR,4764,5454,12207,0.985,551
2022-05-06T00:13:10,42.805,6.029,CST-1368DR,4764,5463,12228,0.978,551
2022-05-06T00:16:12,42.805,6.029,CST-1368DR,4764,5454,12209,0.984,551
2022-05-06T00:19:13,42.805,6.029,CST-1368DR,4765,5463,12226,0.979,551
2022-05-06T00:22:15,42.805,6.029,CST-1368DR,4764,5453,12206,0.985,551
2022-05-06T00:25:16,42.805,6.029,CST-1368DR,4764,5456,12213,0.983,551
2022-05-06T00:28:18,42.805,6.029,CST-1368DR,4764,5456,12213,0.983,551
2022-05-06T00:31:20,42.805,6.029,CST-1368DR,4764,5454,12208,0.985,551
2022-05-06T00:34:21,42.805,6.029,CST-1368DR,4764,5457,12216,0.982,551
2022-05-06T00:37:23,42.805,6.029,CST-1368DR,4765,5463,12225,0.979,551
2022-05-06T00:40:24,42.805,6.029,CST-1368DR,4765,5465,12231,0.977,551
2022-05-06T00:43:26,42.805,6.029,CST-1368DR,4764,5456,12212,0.984,551
2022-05-06T00:46:27,42.805,6.029,CST-1368DR,4764,5456,12212,0.984,551
2022-05-06T00:49:29,42.805,6.029,CST-1368DR,4765,5462,12223,0.980,551
2022-05-06T00:52:31,42.805,6.029,CST-1368DR,4765,5459,12218,0.982,551
2022-05-06T00:55:32,42.805,6.029,CST-1368DR,4764,5460,12221,0.981,551
2022-05-06T00:58:34,42.805,6.029,CST-1368DR,4764,5462,12226,0.979,551
2022-05-06T01:01:35,42.805,6.029,CST-1368DR,4764,5464,12231,0.977,551
2022-05-06T01:04:37,42.805,6.029,CST-1368DR,4764,5456,12212,0.984,551
2022-05-06T01:07:39,42.805,6.029,CST-1368DR,4764,5458,12218,0.982,551
2022-05-06T01:10:40,42.805,6.029,CST-1368DR,4765,5463,12226,0.979,551
2022-05-06T01:13:42,42.805,6.029,CST-1368DR,4764,5453,12206,0.985,551
2022-05-06T01:16:43,42.805,6.029,CST-1368DR,4764,5467,12236,0.976,551
2022-05-06T01:19:45,42.805,6.029,CST-1368DR,4764,5457,12215,0.983,551
2022-05-06T01:22:46,42.805,6.029,CST-1368DR,4764,5466,12235,0.976,551
2022-05-06T01:25:48,42.805,6.029,CST-1368DR,4765,5463,12225,0.979,551
2022-05-06T01:28:50,42.805,6.029,CST-1368DR,4764,5462,12226,0.979,551
2022-05-06T01:31:51,42.805,6.029,CST-1368DR,4764,5462,12225,0.979,551
2022-05-06T01:34:53,42.805,6.029,CST-1368DR,4764,5466,12235,0.976,551
2022-05-06T01:37:54,42.805,6.029,CST-1368DR,4764,5468,12239,0.975,551
2022-05-06T01:40:56,42.805,6.029,CST-1368DR,4764,5466,12235,0.976,551
2022-05-06T01:43:57,42.805,6.029,CST-1368DR,4764,5464,12231,0.977,551
2022-05-06T01:46:59,42.805,6.029,CST-1368DR,4764,5457,12214,0.983,551
2022-05-06T01:50:01,42.805,6.029,CST-1368DR,4764,5461,12223,0.980,551
2022-05-06T01:53:02,42.805,6.029,CST-1368DR,4764,5454,12208,0.985,551
2022-05-06T01:56:04,42.805,6.029,CST-1368DR,4764,5455,12210,0.984,551
2022-05-06T01:59:05,42.805,6.029,CST-1368DR,4764,5466,12235,0.976,551
2022-05-06T02:02:07,42.805,6.029,CST-1368DR,4764,5460,12222,0.980,551
2022-05-06T02:05:08,42.805,6.029,CST-1368DR,4764,5450,12198,0.988,551
2022-05-06T02:08:10,42.805,6.029,CST-1368DR,4764,5463,12228,0.978,551
2022-05-06T02:11:12,42.805,6.029,CST-1368DR,4764,5458,12217,0.982,551
2022-05-06T02:14:13,42.805,6.029,CST-1368DR,4764,5462,12225,0.979,551
2022-05-06T02:17:15,42.805,6.029,CST-1368DR,4764,5451,12201,0.987,551
2022-05-06T02:20:16,42.805,6.029,CST-1368DR,4764,5461,12223,0.980,551
2022-05-06T02:23:18,42.805,6.029,CST-1368DR,4764,5460,12221,0.981,551
2022-05-06T02:26:20,42.805,6.029,CST-1368DR,4764,5454,12208,0.985,551
2022-05-06T02:29:21,42.805,6.029,CST-1368DR,4764,5455,12211,0.984,551
2022-05-06T02:32:23,42.805,6.029,CST-1368DR,4764,5455,12211,0.984,551
2022-05-06T02:35:24,42.805,6.029,CST-1368DR,4764,5464,12231,0.977,551
2022-05-06T02:38:26,42.805,6.029,CST-1368DR,4764,5460,12222,0.980,551
2022-05-06T02:41:27,42.805,6.029,CST-1368DR,4764,5459,12220,0.981,551
2022-05-06T02:44:29,42.805,6.029,CST-1368DR,4764,5452,12203,0.986,551
2022-05-06T02:47:31,42.805,6.029,CST-1368DR,4764,5463,12228,0.978,551
2022-05-06T02:50:32,42.805,6.029,CST-1368DR,4764,5458,12216,0.982,551
2022-05-06T02:53:34,42.805,6.029,CST-1368DR,4764,5457,12214,0.983,551
2022-05-06T02:56:35,42.805,6.029,CST-1368DR,4764,5460,12221,0.981,551
2022-05-06T02:59:37,42.805,6.029,CST-1368DR,4764,5459,12219,0.981,551
2022-05-06T03:02:38,42.805,6.029,CST-1368DR,4764,5466,12235,0.976,551
2022-05-06T03:05:40,42.805,6.029,CST-1368DR,4764,5458,12217,0.982,551
2022-05-06T03:08:42,42.805,6.029,CST-1368DR,4764,5453,12205,0.986,551
2022-05-06T03:11:43,42.805,6.029,CST-1368DR,4764,5463,12228,0.978,551
2022-05-06T03:14:45,42.805,6.029,CST-1368DR,4764,5465,12233,0.977,551
2022-05-06T03:17:46,42.805,6.029,CST-1368DR,4764,5451,12202,0.987,551
2022-05-06T03:20:48,42.805,6.029,CST-1368DR,4764,5459,12220,0.981,551
2022-05-06T03:23:50,42.805,6.029,CST-1368DR,4764,5455,12211,0.984,551
2022-05-06T03:26:51,42.805,6.029,CST-1368DR,4764,5456,12212,0.984,551
2022-05-06T03:29:53,42.805,6.029,CST-1368DR,4764,5461,12224,0.980,551
2022-05-06T03:32:54,42.805,6.029,CST-1368DR,4764,5463,12229,0.978,551
2022-05-06T03:35:56,42.805,6.029,CST-1368DR,4764,5459,12220,0.981,551
2022-05-06T03:38:57,42.805,6.029,CST-1368DR,4764,5463,12227,0.979,551
2022-05-06T03:41:59,42.805,6.029,CST-1368DR,4764,5455,12209,0.984,551
2022-05-06T03:45:01,42.805,6.029,CST-1368DR,4764,5458,12217,0.982,551
2022-05-06T03:48:02,42.805,6.029,CST-1368DR,4764,5462,12227,0.979,551
2022-05-06T03:51:04,42.805,6.029,CST-1368DR,4764,5461,12225,0.979,551
2022-05-06T03:54:05,42.805,6.029,CST-1368DR,4764,5461,12223,0.980,551
2022-05-06T03:57:07,42.805,6.029,CST-1368DR,4764,5453,12206,0.985,550
2022-05-06T04:00:08,42.805,6.029,CST-1368DR,4764,5458,12217,0.982,551
2022-05-06T04:03:10,42.805,6.029,CST-1368DR,4764,5453,12206,0.985,551
2022-05-06T04:06:12,42.805,6.029,CST-1368DR,4764,5456,12212,0.984,551
2022-05-06T04:09:13,42.805,6.029,CST-1368DR,4764,5460,12222,0.980,551
2022-05-06T04:12:15,42.805,6.029,CST-1368DR,4764,5462,12226,0.979,551
2022-05-06T04:15:16,42.805,6.029,CST-1368DR,4764,5451,12202,0.987,551
2022-05-06T04:18:18,42.805,6.029,CST-1368DR,4764,5461,12223,0.980,551
2022-05-06T04:21:20,42.805,6.029,CST-1368DR,4764,5453,12205,0.986,551
2022-05-06T04:24:21,42.805,6.029,CST-1368DR,4764,5452,12203,0.986,551
2022-05-06T04:27:23,42.805,6.029,CST-1368DR,4764,5461,12223,0.980,551
2022-05-06T04:30:24,42.805,6.029,CST-1368DR,4764,5458,12217,0.982,551
2022-05-06T04:33:26,42.805,6.029,CST-1368DR,4764,5454,12208,0.985,551
2022-05-06T04:36:27,42.805,6.029,CST-1368DR,4764,5455,12210,0.984,551
2022-05-06T04:39:29,42.805,6.029,CST-1368DR,4764,5461,12224,0.980,551
2022-05-06T04:42:31,42.805,6.029,CST-1368DR,4764,5462,12225,0.979,551
2022-05-06T04:45:32,42.805,6.029,CST-1368DR,4764,5461,12223,0.980,551
2022-05-06T04:48:34,42.805,6.029,CST-1368DR,4764,5459,12220,0.981,551
2022-05-06T04:51:35,42.805,6.029,CST-1368DR,4764,5458,12217,0.982,551
2022-05-06T04:54:37,42.805,6.029,CST-1368DR,4764,5465,12234,0.976,551
2022-05-06T04:57:39,42.805,6.029,CST-1368DR,4764,5464,12230,0.978,551
2022-05-06T05:00:40,42.805,6.029,CST-1368DR,4764,5459,12220,0.981,551
2022-05-06T05:03:42,42.805,6.029,CST-1368DR,4764,5458,12218,0.982,551
2022-05-06T05:06:43,42.805,6.029,CST-1368DR,4764,5465,12234,0.976,551
2022-05-06T05:09:45,42.805,6.029,CST-1368DR,4764,5456,12213,0.983,551
2022-05-06T05:12:46,42.805,6.029,CST-1368DR,4764,5463,12228,0.978,551
2022-05-06T05:15:48,42.805,6.029,CST-1368DR,4764,5459,12218,0.982,551
2022-05-06T05:18:50,42.805,6.029,CST-1368DR,4764,5458,12218,0.982,551
2022-05-06T05:21:51,42.805,6.029,CST-1368DR,4764,5462,12226,0.979,551
2022-05-06T05:24:53,42.805,6.029,CST-1368DR,4764,5463,12227,0.979,551
2022-05-06T05:27:54,42.805,6.029,CST-1368DR,4764,5460,12222,0.980,551
2022-05-06T05:30:56,42.805,6.029,CST-1368DR,4764,5462,12226,0.979,551
2022-05-06T05:33:57,42.805,6.029,CST-1368DR,4764,5461,12225,0.979,551
2022-05-06T05:36:59,42.805,6.029,CST-1368DR,4764,5461,12224,0.980,551
2022-05-06T05:40:01,42.805,6.029,CST-1368DR,4764,5448,12195,0.989,551
2022-05-06T05:43:02,42.805,6.029,CST-1368DR,4764,5461,12224,0.980,551
2022-05-06T05:46:04,42.805,6.029,CST-1368DR,4764,5462,12227,0.979,551
2022-05-06T05:49:05,42.805,6.029,CST-1368DR,4764,5461,12223,0.980,551
2022-05-06T05:52:07,42.805,6.029,CST-1368DR,4764,5455,12211,0.984,551
2022-05-06T05:55:09,42.805,6.029,CST-1368DR,4764,5458,12217,0.982,551
2022-05-06T05:58:10,42.805,6.029,CST-1368DR,4764,5459,12219,0.981,551
2022-05-06T06:01:12,42.805,6.029,CST-1368DR,4764,5452,12204,0.986,551
2022-05-06T06:04:13,42.805,6.029,CST-1368DR,4764,5453,12205,0.986,551
2022-05-06T06:07:15,42.805,6.029,CST-1368DR,4764,5447,12193,0.990,551
2022-05-06T06:10:16,42.805,6.029,CST-1368DR,4764,5457,12214,0.983,551
2022-05-06T06:13:18,42.805,6.029,CST-1368DR,4764,5463,12228,0.978,551
2022-05-06T06:16:20,42.805,6.029,CST-1368DR,4764,5456,12213,0.983,551
2022-05-06T06:19:21,42.805,6.029,CST-1368DR,4764,5456,12212,0.984,551
2022-05-06T06:22:23,42.805,6.029,CST-1368DR,4764,5459,12218,0.982,551
2022-05-06T06:25:24,42.805,6.029,CST-1368DR,4764,5456,12212,0.984,551
2022-05-06T06:28:26,42.805,6.029,CST-1368DR,4764,5453,12206,0.985,551
2022-05-06T06:31:27,42.805,6.029,CST-1368DR,4764,5449,12197,0.988,551
2022-05-06T06:34:29,42.805,6.029,CST-1368DR,4764,5459,12220,0.981,551
2022-05-06T06:37:31,42.805,6.029,CST-1368DR,4764,5453,12206,0.985,551
2022-05-06T06:40:32,42.805,6.029,CST-1368DR,4764,5453,12206,0.985,551
2022-05-06T06:43:34,42.805,6.029,CST-1368DR,4764,5459,12219,0.981,551
2022-05-06T06:46:35,42.805,6.029,CST-1368DR,4764,5461,12225,0.979,551
2022-05-06T06:49:37,42.805,6.029,CST-1368DR,4764,5459,12220,0.981,551
2022-05-06T06:52:39,42.805,6.029,CST-1368DR,4764,5458,12217,0.982,551
2022-05-06T06:55:40,42.805,6.029,CST-1368DR,4764,5459,12220,0.981,551
2022-05-06T06:58:42,42.805,6.029,CST-1368DR,4764,5455,12211,0.984,551
2022-05-06T07:01:43,42.805,6.029,CST-1368DR,4764,5458,12217,0.982,551
2022-05-06T07:04:45,42.805,6.029,CST-1368DR,4764,5452,12203,0.986,551
2022-05-06T07:07:46,42.805,6.029,CST-1368DR,4764,5454,12207,0.985,551
2022-05-06T07:10:48,42.805,6.029,CST-1368DR,4764,5454,12208,0.985,551
2022-05-06T07:13:50,42.805,6.029,CST-1368DR,4764,5456,12212,0.984,551
2022-05-06T07:16:51,42.805,6.029,CST-1368DR,4764,5466,12235,0.976,551
2022-05-06T07:19:53,42.805,6.029,CST-1368DR,4764,5458,12218,0.982,551
2022-05-06T07:22:54,42.805,6.029,CST-1368DR,4764,5458,12217,0.982,551
2022-05-06T07:25:56,42.805,6.029,CST-1368DR,4764,5459,12220,0.981,551
2022-05-06T07:28:58,42.805,6.029,CST-1368DR,4764,5461,12223,0.980,551
2022-05-06T07:31:59,42.805,6.029,CST-1368DR,4764,5453,12206,0.985,551
2022-05-06T07:35:01,42.805,6.029,CST-1368DR,4764,5450,12199,0.988,551
2022-05-06T07:38:02,42.805,6.029,CST-1368DR,4764,5450,12200,0.987,551
2022-05-06T07:41:04,42.805,6.029,CST-1368DR,4764,5459,12220,0.981,551
2022-05-06T07:44:05,42.805,6.029,CST-1368DR,4764,5450,12200,0.987,551
2022-05-06T07:47:07,42.805,6.029,CST-1368DR,4764,5450,12200,0.987,551
2022-05-06T07:50:09,42.805,6.029,CST-1368DR,4764,5455,12210,0.984,551
2022-05-06T07:53:10,42.805,6.029,CST-1368DR,4764,5457,12216,0.982,551
2022-05-06T07:56:12,42.805,6.029,CST-1368DR,4764,5464,12231,0.977,551
2022-05-06T07:59:13,42.805,6.029,CST-1368DR,4764,5458,12216,0.982,551
2022-05-06T08:02:15,42.805,6.029,CST-1368DR,4764,5459,12220,0.981,551
2022-05-06T08:05:16,42.805,6.029,CST-1368DR,4764,5460,12221,0.981,551
2022-05-06T08:08:18,42.805,6.029,CST-1368DR,4764,5459,12219,0.981,551
2022-05-06T08:11:20,42.805,6.029,CST-1368DR,4764,5466,12235,0.976,551
2022-05-06T08:14:21,42.805,6.029,CST-1368DR,4764,5461,12223,0.980,551
2022-05-06T08:17:23,42.805,6.029,CST-1368DR,4764,5464,12231,0.977,551
2022-05-06T08:20:24,42.805,6.029,CST-1368DR,4764,5455,12209,0.984,551
2022-05-06T08:23:26,42.805,6.029,CST-1368DR,4764,5460,12222,0.980,551
2022-05-06T08:26:28,42.805,6.029,CST-1368DR,4764,5455,12210,0.984,551
2022-05-06T08:29:29,42.805,6.029,CST-1368DR,4764,5457,12214,0.983,551
2022-05-06T08:32:31,42.805,6.029,CST-1368DR,4764,5455,12211,0.984,551
2022-05-06T08:35:32,42.805,6.029,CST-1368DR,4764,5456,12213,0.983,551
2022-05-06T08:38:34,42.805,6.029,CST-1368DR,4764,5458,12217,0.982,551
2022-05-06T08:41:35,42.805,6.029,CST-1368DR,4764,5465,12232,0.977,551
2022-05-06T08:44:37,42.805,6.029,CST-1368DR,4764,5458,12218,0.982,551
2022-05-06T08:47:39,42.805,6.029,CST-1368DR,4764,5453,12205,0.986,551
2022-05-06T08:50:40,42.805,6.029,CST-1368DR,4764,5462,12226,0.979,551
2022-05-06T08:53:42,42.805,6.029,CST-1368DR,4764,5461,12225,0.979,551
2022-05-06T08:56:43,42.805,6.029,CST-1368DR,4764,5463,12229,0.978,551
2022-05-06T08:59:45,42.805,6.029,CST-1368DR,4764,5462,12225,0.979,551
2022-05-06T09:02:46,42.805,6.029,CST-1368DR,4764,5454,12208,0.985,551
2022-05-06T09:05:48,42.805,6.029,CST-1368DR,4764,5456,12212,0.984,551
2022-05-06T09:08:50,42.805,6.029,CST-1368DR,4764,5454,12208,0.985,551
2022-05-06T09:11:51,42.805,6.029,CST-1368DR,4764,5459,12219,0.981,551
2022-05-06T09:14:53,42.805,6.029,CST-1368DR,4764,5466,12235,0.976,551
2022-05-06T09:17:54,42.805,6.029,CST-1368DR,4764,5459,12218,0.982,551
2022-05-06T09:20:56,42.805,6.029,CST-1368DR,4764,5461,12224,0.980,551
2022-05-06T09:23:58,42.805,6.029,CST-1368DR,4764,5465,12232,0.977,551
2022-05-06T09:26:59,42.805,6.029,CST-1368DR,4764,5464,12231,0.977,551
2022-05-06T09:30:01,42.805,6.029,CST-1368DR,4764,5463,12227,0.979,551
2022-05-06T09:33:02,42.805,6.029,CST-1368DR,4764,5462,12226,0.979,551
2022-05-06T09:36:04,42.805,6.029,CST-1368DR,4764,5465,12232,0.977,551
2022-05-06T09:39:05,42.805,6.029,CST-1368DR,4764,5461,12225,0.979,551
2022-05-06T09:42:07,42.805,6.029,CST-1368DR,4764,5460,12221,0.981,551
2022-05-06T09:45:09,42.805,6.029,CST-1368DR,4764,5461,12223,0.980,551
2022-05-06T09:48:10,42.805,6.029,CST-1368DR,4764,5460,12221,0.981,551
2022-05-06T09:51:12,42.805,6.029,CST-1368DR,4764,5466,12235,0.976,551
2022-05-06T09:54:13,42.805,6.029,CST-1368DR,4764,5465,12233,0.977,551
2022-05-06T09:57:15,42.805,6.029,CST-1368DR,4764,5465,12232,0.977,551
2022-05-06T10:00:16,42.805,6.029,CST-1368DR,4764,5462,12225,0.979,551
2022-05-06T10:03:18,42.805,6.029,CST-1368DR,4764,5463,12229,0.978,551
2022-05-06T10:06:20,42.805,6.029,CST-1368DR,4764,5460,12222,0.980,551
2022-05-06T10:09:21,42.805,6.029,CST-1368DR,4764,5463,12228,0.978,551
2022-05-06T10:12:23,42.805,6.029,CST-1368DR,4764,5462,12226,0.979,551
2022-05-06T10:15:24,42.805,6.029,CST-1368DR,4764,5460,12221,0.981,551
2022-05-06T10:18:26,42.805,6.029,CST-1368DR,4764,5463,12228,0.978,551
2022-05-06T10:21:28,42.805,6.029,CST-1368DR,4764,5458,12218,0.982,551
2022-05-06T10:24:29,42.805,6.029,CST-1368DR,4764,5465,12232,0.977,551
2022-05-06T10:27:31,42.805,6.029,CST-1368DR,4764,5466,12235,0.976,551
2022-05-06T10:30:32,42.805,6.029,CST-1368DR,4764,5461,12224,0.980,551
2022-05-06T10:33:34,42.805,6.029,CST-1368DR,4764,5461,12224,0.980,551
2022-05-06T10:36:35,42.805,6.029,CST-1368DR,4764,5468,12239,0.975,551
2022-05-06T10:39:37,42.805,6.029,CST-1368DR,4764,5466,12235,0.976,551
2022-05-06T10:42:39,42.805,6.029,CST-1368DR,4764,5472,12249,0.971,551
2022-05-06T10:45:40,42.805,6.029,CST-1368DR,4764,5468,12240,0.974,551
2022-05-06T10:48:42,42.805,6.029,CST-1368DR,4764,5462,12227,0.979,551
2022-05-06T10:51:43,42.805,6.029,CST-1368DR,4764,5468,12240,0.974,551
2022-05-06T10:54:45,42.805,6.029,CST-1368DR,4764,5462,12226,0.979,551
2022-05-06T10:57:46,42.805,6.029,CST-1368DR,4764,5463,12228,0.978,551
2022-05-06T11:00:48,42.805,6.029,CST-1368DR,4764,5461,12223,0.980,551
2022-05-06T11:03:50,42.805,6.029,CST-1368DR,4764,5479,12264,0.967,551
2022-05-06T11:06:51,42.805,6.029,CST-1368DR,4764,5465,12233,0.977,551
2022-05-06T11:09:53,42.805,6.029,CST-1368DR,4764,5458,12217,0.982,551
2022-05-06T11:12:54,42.805,6.029,CST-1368DR,4764,5467,12238,0.975,551
2022-05-06T11:15:56,42.805,6.029,CST-1368DR,4764,5463,12228,0.978,551
2022-05-06T11:18:58,42.805,6.029,CST-1368DR,4764,5464,12231,0.977,551
2022-05-06T11:21:59,42.805,6.029,CST-1368DR,4764,5458,12217,0.982,551
2022-05-06T11:25:01,42.805,6.029,CST-1368DR,4764,5461,12224,0.980,551
2022-05-06T11:28:02,42.805,6.029,CST-1368DR,4764,5459,12220,0.981,551
2022-05-06T11:31:04,42.805,6.029,CST-1368DR,4764,5460,12222,0.980,551
2022-05-06T11:34:05,42.805,6.029,CST-1368DR,4764,5458,12217,0.982,551
2022-05-06T11:37:07,42.805,6.029,CST-1368DR,4764,5459,12220,0.981,551
2022-05-06T11:40:09,42.805,6.029,CST-1368DR,4764,5463,12228,0.978,551
2022-05-06T11:43:10,42.805,6.029,CST-1368DR,4764,5456,12212,0.984,551
2022-05-06T11:46:12,42.805,6.029,CST-1368DR,4764,5464,12231,0.977,551
2022-05-06T11:49:13,42.805,6.029,CST-1368DR,4764,5463,12228,0.978,551
2022-05-06T11:52:15,42.805,6.029,CST-1368DR,4764,5465,12234,0.976,551
2022-05-06T11:55:16,42.805,6.029,CST-1368DR,4764,5458,12217,0.982,551
2022-05-06T11:58:18,42.805,6.029,CST-1368DR,4764,5462,12226,0.979,551
2022-05-06T12:01:20,42.805,6.029,CST-1368DR,4764,5459,12220,0.981,551
2022-05-06T12:04:21,42.805,6.029,CST-1368DR,4764,5462,12227,0.979,551
2022-05-06T12:07:23,42.805,6.029,CST-1368DR,4764,5465,12232,0.977,551
2022-05-06T12:10:24,42.805,6.029,CST-1368DR,4764,5461,12225,0.979,551
2022-05-06T12:13:26,42.805,6.029,CST-1368DR,4764,5456,12212,0.984,551
2022-05-06T12:16:28,42.805,6.029,CST-1368DR,4764,5460,12221,0.981,551
2022-05-06T12:19:29,42.805,6.029,CST-1368DR,4764,5459,12218,0.982,551
2022-05-06T12:22:31,42.805,6.029,CST-1368DR,4764,5457,12214,0.983,551
2022-05-06T12:25:32,42.805,6.029,CST-1368DR,4764,5452,12203,0.986,551
2022-05-06T12:28:34,42.805,6.029,CST-1368DR,4764,5456,12213,0.983,551
2022-05-06T12:31:35,42.805,6.029,CST-1368DR,4764,5459,12218,0.982,551
2022-05-06T12:34:37,42.805,6.029,CST-1368DR,4764,5455,12211,0.984,551
2022-05-06T12:37:39,42.805,6.029,CST-1368DR,4764,5471,12247,0.972,551
2022-05-06T12:40:40,42.805,6.029,CST-1368DR,4764,5457,12214,0.983,551
2022-05-06T12:43:42,42.805,6.029,CST-1368DR,4764,5464,12231,0.977,551
2022-05-06T12:46:43,42.805,6.029,CST-1368DR,4764,5450,12198,0.988,551
2022-05-06T12:49:45,42.805,6.029,CST-1368DR,4764,5458,12216,0.982,551
2022-05-06T12:52:46,42.805,6.029,CST-1368DR,4764,5461,12223,0.980,551
2022-05-06T12:55:48,42.805,6.029,CST-1368DR,4764,5457,12214,0.983,551
2022-05-06T12:58:50,42.805,6.029,CST-1368DR,4764,5458,12216,0.982,551
2022-05-06T13:01:51,42.805,6.029,CST-1368DR,4764,5459,12220,0.981,551
2022-05-06T13:04:53,42.805,6.029,CST-1368DR,4764,5456,12212,0.984,551
2022-05-06T13:07:54,42.805,6.029,CST-1368DR,4764,5459,12218,0.982,551
2022-05-06T13:10:56,42.805,6.029,CST-1368DR,4764,5454,12208,0.985,551
2022-05-06T13:13:58,42.805,6.029,CST-1368DR,4764,5462,12226,0.979,551
2022-05-06T13:16:59,42.805,6.029,CST-1368DR,4764,5465,12232,0.977,551
2022-05-06T13:20:01,42.805,6.029,CST-1368DR,4764,5462,12226,0.979,551
2022-05-06T13:23:02,42.805,6.029,CST-1368DR,4763,5462,12228,0.978,551
2022-05-06T13:26:04,42.805,6.029,CST-1368DR,4764,5463,12227,0.979,551
2022-05-06T13:29:05,42.805,6.029,CST-1368DR,4764,5467,12238,0.975,551
2022-05-06T13:32:07,42.805,6.029,CST-1368DR,4764,5467,12237,0.975,551
2022-05-06T13:35:09,42.805,6.029,CST-1368DR,4764,5466,12236,0.976,551
2022-05-06T13:38:10,42.805,6.029,CST-1368DR,4764,5464,12231,0.977,551
2022-05-06T13:41:12,42.805,6.029,CST-1368DR,4764,5459,12220,0.981,551
2022-05-06T13:44:13,42.805,6.029,CST-1368DR,4764,5462,12227,0.979,551
2022-05-06T13:47:15,42.805,6.029,CST-1368DR,4764,5461,12223,0.980,551
2022-05-06T13:50:16,42.805,6.029,CST-1368DR,4764,5469,12242,0.974,551
2022-05-06T13:53:18,42.805,6.029,CST-1368DR,4764,5468,12239,0.975,551
2022-05-06T13:56:20,42.805,6.029,CST-1368DR,4764,5459,12219,0.981,551
2022-05-06T13:59:21,42.805,6.029,CST-1368DR,4763,5463,12231,0.977,551
2022-05-06T14:02:23,42.805,6.029,CST-1368DR,4764,5468,12240,0.974,551
2022-05-06T14:05:24,42.805,6.029,CST-1368DR,4764,5477,12259,0.968,551
2022-05-06T14:08:26,42.805,6.029,CST-1368DR,4763,5458,12220,0.981,551
2022-05-06T14:11:28,42.805,6.029,CST-1368DR,4763,5462,12229,0.978,551
2022-05-06T14:14:29,42.805,6.029,CST-1368DR,4763,5464,12234,0.976,551
2022-05-06T14:17:31,42.805,6.029,CST-1368DR,4764,5465,12233,0.977,551
2022-05-06T14:20:32,42.805,6.029,CST-1368DR,4763,5462,12229,0.978,551
2022-05-06T14:23:34,42.805,6.029,CST-1368DR,4763,5457,12217,0.982,551
2022-05-06T14:26:35,42.805,6.029,CST-1368DR,4764,5463,12228,0.978,551
2022-05-06T14:29:37,42.805,6.029,CST-1368DR,4763,5458,12220,0.981,551
2022-05-06T14:32:39,42.805,6.029,CST-1368DR,4763,5459,12221,0.981,551
2022-05-06T14:35:40,42.805,6.029,CST-1368DR,4763,5451,12204,0.986,551
2022-05-06T14:38:42,42.805,6.029,CST-1368DR,4763,5458,12220,0.981,551
2022-05-06T14:41:43,42.805,6.029,CST-1368DR,4763,5456,12215,0.983,551
2022-05-06T14:44:45,42.805,6.029,CST-1368DR,4763,5454,12211,0.984,551
2022-05-06T14:47:47,42.805,6.029,CST-1368DR,4763,5452,12206,0.985,551
2022-05-06T14:50:48,42.805,6.029,CST-1368DR,4764,5458,12217,0.982,551
2022-05-06T14:53:50,42.805,6.029,CST-1368DR,4763,5452,12207,0.985,551
2022-05-06T14:56:51,42.805,6.029,CST-1368DR,4763,5454,12211,0.984,551
2022-05-06T14:59:53,42.805,6.029,CST-1368DR,4763,5454,12211,0.984,551
2022-05-06T15:02:54,42.805,6.029,CST-1368DR,4763,5453,12208,0.985,551
2022-05-06T15:05:56,42.805,6.029,CST-1368DR,4763,5455,12214,0.983,551
2022-05-06T15:08:58,42.805,6.029,CST-1368DR,4763,5451,12204,0.986,551
2022-05-06T15:11:59,42.805,6.029,CST-1368DR,4763,5454,12211,0.984,551
2022-05-06T15:15:01,42.805,6.029,CST-1368DR,4763,5454,12210,0.984,551
2022-05-06T15:18:02,42.805,6.029,CST-1368DR,4763,5453,12207,0.985,551
2022-05-06T15:21:04,42.805,6.029,CST-1368DR,4763,5458,12219,0.981,551
2022-05-06T15:24:05,42.805,6.029,CST-1368DR,4763,5457,12216,0.982,551
2022-05-06T15:27:07,42.805,6.029,CST-1368DR,4763,5459,12222,0.980,551
2022-05-06T15:30:09,42.805,6.029,CST-1368DR,4763,5455,12213,0.983,551
2022-05-06T15:33:10,42.805,6.029,CST-1368DR,4763,5467,12239,0.975,550
2022-05-06T15:36:12,42.805,6.029,CST-1368DR,4763,5466,12238,0.975,551
2022-05-06T15:39:13,42.805,6.029,CST-1368DR,4763,5466,12237,0.975,551
2022-05-06T15:42:15,42.805,6.029,CST-1368DR,4763,5454,12210,0.984,551
2022-05-06T15:45:17,42.805,6.029,CST-1368DR,4763,5442,12183,0.993,551
2022-05-06T15:48:18,42.805,6.029,CST-1368DR,4763,5456,12216,0.982,551
2022-05-06T15:51:20,42.805,6.029,CST-1368DR,4763,5461,12225,0.979,551
2022-05-06T15:54:21,42.805,6.029,CST-1368DR,4763,5441,12182,0.993,551
2022-05-06T15:57:23,42.805,6.029,CST-1368DR,4763,5432,12162,01.000,551
2022-05-06T16:00:24,42.805,6.029,CST-1368DR,4763,5440,12178,0.995,551
2022-05-06T16:03:26,42.805,6.029,CST-1368DR,4763,5447,12196,0.989,551
2022-05-06T16:06:28,42.805,6.029,CST-1368DR,4763,5439,12178,0.995,551
2022-05-06T16:09:29,42.805,6.029,CST-1368DR,4763,5451,12204,0.986,551
2022-05-06T16:12:31,42.805,6.029,CST-1368DR,4763,5433,12164,0.999,551
2022-05-06T16:15:32,42.805,6.029,CST-1368DR,4763,5466,12237,0.975,551
2022-05-06T16:18:34,42.805,6.029,CST-1368DR,4764,5488,12284,0.960,551
2022-05-06T16:21:35,42.805,6.029,CST-1368DR,4764,5495,12301,0.954,551
2022-05-06T16:24:37,42.805,6.029,CST-1368DR,4764,5492,12293,0.957,551
2022-05-06T16:27:39,42.805,6.029,CST-1368DR,4764,5493,12296,0.956,551
2022-05-06T16:30:40,42.805,6.029,CST-1368DR,4764,5489,12287,0.959,551
2022-05-06T16:33:42,42.805,6.029,CST-1368DR,4764,5492,12293,0.957,551
2022-05-06T16:36:43,42.805,6.029,CST-1368DR,4763,5488,12287,0.959,551
2022-05-06T16:39:45,42.805,6.029,CST-1368DR,4763,5490,12291,0.958,551
2022-05-06T16:42:47,42.805,6.029,CST-1368DR,4763,5491,12293,0.957,551
2022-05-06T16:45:48,42.805,6.029,CST-1368DR,4764,5500,12312,0.951,551
2022-05-06T16:48:50,42.805,6.029,CST-1368DR,4764,5494,12298,0.955,551
2022-05-06T16:51:51,42.805,6.029,CST-1368DR,4764,5497,12303,0.954,551